Location: Kelowna
(49.8880°N, 119.4960°W)
Time: 14:50:25
(UTC-07:00)

TIGRISAT - Pass Details

Date: 01 May 2024
Orbit: 594 x 672 km, 97.7° (Epoch: 27 May)

Event Time Altitude Azimuth Distance (km) Brightness Sun altitude
Rises 03:58:44 0° 140° (SE) 2,882 ? -13.3°
Reaches altitude 10° 04:01:05 10° 131° (SE) 1,969 ? -13.1°
Maximum altitude 04:04:54 33° 67° (ENE) 1,028 ? -12.6°
Drops below altitude 10° 04:08:42 10° 3° (N) 1,952 ? -12.2°
Sets 04:11:00 0° 354° (N) 2,854 ? -11.9°
